Chicago DuPage, IL

9:16 AM CST on November 24, 2017 (GMT -0600)
Du Page

Weather History for KDPA - March, 2013

Change the Weather History Date:

Friday, March 22, 2013

  Actual Average Record
Temperature  
Mean Temperature 28 °F 40 °F  
Max Temperature 40 °F 51 °F 83 °F (2012)
Min Temperature 15 °F 30 °F 13 °F (2002)
Degree Days  
Heating Degree Days 37 25  
Month to date heating degree days 805 630  
Since 1 July heating degree days 5533 5385  
Cooling Degree Days 0 0  
Month to date cooling degree days 0 0  
Year to date cooling degree days 0 0  
Moisture  
Dew Point 14 °F    
Average Humidity 61    
Maximum Humidity 84    
Minimum Humidity 38    
Precipitation  
Precipitation 0.00 in 0.08 in 0.59 in (2012)
Month to date precipitation 0.97 1.60  
Year to date precipitation 6.37 4.33  
Sea Level Pressure  
Sea Level Pressure 30.06 in    
Wind  
Wind Speed 4 mph (NW)    
Max Wind Speed 12 mph    
Max Gust Speed 16 mph    
Visibility 10 miles    
Events      
T = Trace of Precipitation, MM = Missing Value Source: NWS Daily Summary

Daily Weather History Graph

Daily Weather History Graph

Search for Another Location

Airport or City:

Trip Planner

Search our weather history database for the weather conditions in past years. The results will help you decide how hot, cold, wet, or windy it might be!

Date:

Astronomy

Mar. 22, 2013 Rise Set
Actual Time 6:52 AM CDT 7:07 PM CDT
Civil Twilight 6:24 AM CDT 7:35 PM CDT
Nautical Twilight 5:51 AM CDT 8:08 PM CDT
Astronomical Twilight 5:18 AM CDT 8:41 PM CDT
Moon 2:31 PM CDT (3/22) 3:56 AM CDT (3/22)
Length of Visible Light 13h 11m
Length of Day
12h 15m
Waxing Gibbous, 77% of the Moon is Illuminated
Mar 22
Waxing Gibbous
Mar 27
Full
Apr 2
Last Quarter
Apr 10
New
Apr 18
First Quarter

Hourly Weather History & Observations

Time (CDT) Temp. Windchill Dew Point Humidity Pressure Visibility Wind Dir Wind Speed Gust Speed Precip Events Conditions
12:52 AM 19.9 °F 14.9 °F 14.0 °F 78% 30.07 in 10.0 mi NW 3.5 mph - N/A   Clear
1:52 AM 18.0 °F 12.7 °F 12.0 °F 78% 30.06 in 10.0 mi WNW 3.5 mph - N/A   Clear
2:52 AM 19.0 °F - 12.9 °F 77% 30.06 in 10.0 mi Calm Calm - N/A   Clear
3:52 AM 18.0 °F - 12.0 °F 78% 30.06 in 10.0 mi Calm Calm - N/A   Clear
4:52 AM 18.0 °F - 12.0 °F 78% 30.07 in 10.0 mi Calm Calm - N/A   Clear
5:52 AM 16.0 °F - 12.0 °F 84% 30.06 in 10.0 mi Calm Calm - N/A   Clear
6:52 AM 18.0 °F - 12.0 °F 78% 30.07 in 10.0 mi Calm Calm - N/A   Clear
7:52 AM 19.9 °F - 14.0 °F 78% 30.07 in 10.0 mi Calm Calm - N/A   Clear
8:52 AM 25.0 °F 20.7 °F 14.0 °F 63% 30.06 in 10.0 mi WNW 3.5 mph - N/A   Clear
9:52 AM 28.9 °F 21.9 °F 10.9 °F 47% 30.07 in 10.0 mi WNW 6.9 mph - N/A   Clear
10:52 AM 30.9 °F 24.3 °F 10.9 °F 43% 30.07 in 10.0 mi NW 6.9 mph - N/A   Clear
11:52 AM 34.0 °F 27.2 °F 12.0 °F 40% 30.07 in 10.0 mi WNW 8.1 mph - N/A   Clear
12:52 PM 34.0 °F 28.8 °F 12.9 °F 42% 30.06 in 10.0 mi NW 5.8 mph - N/A   Clear
1:52 PM 36.0 °F 31.1 °F 14.0 °F 41% 30.05 in 10.0 mi West 5.8 mph - N/A   Clear
2:52 PM 37.9 °F 34.4 °F 14.0 °F 38% 30.02 in 10.0 mi NW 4.6 mph - N/A   Clear
3:52 PM 37.9 °F 34.4 °F 15.1 °F 39% 30.02 in 10.0 mi WNW 4.6 mph - N/A   Clear
4:52 PM 37.9 °F 35.5 °F 15.1 °F 39% 30.03 in 10.0 mi Variable 3.5 mph - N/A   Clear
5:52 PM 37.0 °F 32.4 °F 16.0 °F 42% 30.05 in 10.0 mi WNW 5.8 mph - N/A   Clear
6:52 PM 32.0 °F 25.6 °F 18.0 °F 56% 30.06 in 10.0 mi WNW 6.9 mph - N/A   Clear
7:52 PM 30.9 °F 26.2 °F 17.1 °F 57% 30.05 in 10.0 mi NW 4.6 mph - N/A   Clear
8:52 PM 27.0 °F 21.6 °F 18.0 °F 69% 30.07 in 10.0 mi WNW 4.6 mph - N/A   Clear
9:52 PM 25.0 °F 18.1 °F 17.1 °F 72% 30.09 in 10.0 mi North 5.8 mph - N/A   Clear
10:52 PM 25.0 °F 19.3 °F 19.0 °F 78% 30.08 in 10.0 mi NNE 4.6 mph - N/A   Clear
11:52 PM 26.1 °F 21.9 °F 19.0 °F 75% 30.08 in 10.0 mi NNE 3.5 mph - N/A   Clear